Kerrville, TX

12:57 PM CDT on June 28, 2017 (GMT -0500)
Kerrville Municipal-Schreiner

Weather History for KERV - January, 2014

Change the Weather History Date:

Sunday, January 19, 2014

  Actual Average (KHDO) Record (KHDO)
Temperature  
Mean Temperature 51 °F -  
Max Temperature 71 °F 63 °F 84 °F (2000)
Min Temperature 31 °F 38 °F 24 °F (2008)
Degree Days  
Heating Degree Days 14    
Growing Degree Days 1 (Base 50)    
Moisture  
Dew Point 30 °F    
Average Humidity 60    
Maximum Humidity 96    
Minimum Humidity 14    
Precipitation  
Precipitation 0.00 in - - ()
Sea Level Pressure  
Sea Level Pressure 30.23 in    
Wind  
Wind Speed 3 mph (West)    
Max Wind Speed 9 mph    
Max Gust Speed -    
Visibility 10 miles    
Events      
Averages and records for this station are not official NWS values.
T = Trace of Precipitation, MM = Missing Value Source: NWS Daily Summary

Daily Weather History Graph

Daily Weather History Graph

Search for Another Location

Airport or City:

Trip Planner

Search our weather history database for the weather conditions in past years. The results will help you decide how hot, cold, wet, or windy it might be!

Date:

Astronomy

Jan. 19, 2014 Rise Set
Actual Time 7:32 AM CST 6:02 PM CST
Civil Twilight 7:06 AM CST 6:28 PM CST
Nautical Twilight 6:37 AM CST 6:57 PM CST
Astronomical Twilight 6:08 AM CST 7:25 PM CST
Moon 9:22 PM CST (1/19) 9:19 AM CST (1/19)
Length of Visible Light 11h 21m
Length of Day
10h 30m
Waning Gibbous, 89% of the Moon is Illuminated
Jan 19
Waning Gibbous
Jan 23
Last Quarter
Jan 30
New
Feb 6
First Quarter
Feb 14
Full

Hourly Weather History & Observations

Time (CST) Temp. Windchill Dew Point Humidity Pressure Visibility Wind Dir Wind Speed Gust Speed Precip Events Conditions
12:15 AM 39.2 °F - 36.5 °F 90% 30.22 in 10.0 mi Calm Calm - N/A   Clear
12:35 AM 38.5 °F 36.1 °F 35.8 °F 90% 30.22 in 10.0 mi NW 3.5 mph - N/A   Clear
12:55 AM 39.2 °F 35.9 °F 36.1 °F 89% 30.22 in 10.0 mi NW 4.6 mph - N/A   Clear
1:15 AM 39.4 °F 36.1 °F 36.1 °F 88% 30.22 in 10.0 mi NW 4.6 mph - N/A   Clear
1:35 AM 38.5 °F 35.0 °F 35.6 °F 89% 30.22 in 10.0 mi WNW 4.6 mph - N/A   Clear
1:55 AM 37.8 °F - 34.9 °F 89% 30.23 in 10.0 mi Calm Calm - N/A   Clear
2:15 AM 37.9 °F - 35.2 °F 90% 30.22 in 10.0 mi Calm Calm - N/A   Clear
2:35 AM 36.7 °F 34.1 °F 34.0 °F 90% 30.23 in 10.0 mi North 3.5 mph - N/A   Clear
2:55 AM 36.0 °F - 34.0 °F 93% 30.24 in 10.0 mi Calm Calm - N/A   Clear
3:15 AM 36.0 °F - 33.8 °F 92% 30.24 in 10.0 mi Calm Calm - N/A   Clear
3:35 AM 36.0 °F 33.3 °F 34.0 °F 93% 30.25 in 10.0 mi WNW 3.5 mph - N/A   Clear
3:55 AM 36.0 °F 33.3 °F 33.8 °F 92% 30.25 in 10.0 mi NW 3.5 mph - N/A   Clear
4:15 AM 33.4 °F 29.1 °F 32.0 °F 94% 30.25 in 10.0 mi NNW 4.6 mph - N/A   Clear
4:35 AM 33.4 °F 29.1 °F 32.0 °F 94% 30.25 in 10.0 mi NW 4.6 mph - N/A   Clear
4:55 AM 36.0 °F 31.1 °F 34.2 °F 93% 30.26 in 10.0 mi West 5.8 mph - N/A   Clear
5:15 AM 36.0 °F 32.1 °F 33.8 °F 92% 30.26 in 10.0 mi NW 4.6 mph - N/A   Clear
5:35 AM 33.4 °F 30.4 °F 32.0 °F 94% 30.26 in 10.0 mi NW 3.5 mph - N/A   Clear
5:55 AM 33.4 °F 30.4 °F 32.0 °F 94% 30.27 in 10.0 mi NW 3.5 mph - N/A   Clear
6:15 AM 31.1 °F 27.7 °F 29.3 °F 93% 30.28 in 10.0 mi NW 3.5 mph - N/A   Clear
6:35 AM 33.4 °F 30.4 °F 32.0 °F 94% 30.28 in 10.0 mi NW 3.5 mph - N/A   Clear
6:55 AM 31.1 °F 25.4 °F 29.7 °F 94% 30.29 in 10.0 mi NNW 5.8 mph - N/A   Clear
7:15 AM 31.1 °F 25.4 °F 29.8 °F 95% 30.29 in 10.0 mi NNW 5.8 mph - N/A   Clear
7:35 AM 32.0 °F 27.5 °F 30.9 °F 96% 30.30 in 10.0 mi NW 4.6 mph - N/A   Clear
7:55 AM 32.2 °F 26.7 °F 30.9 °F 95% 30.30 in 10.0 mi WNW 5.8 mph - N/A   Clear
8:15 AM 33.4 °F 30.4 °F 32.0 °F 94% 30.31 in 10.0 mi WNW 3.5 mph - N/A   Clear
8:35 AM 36.0 °F 33.3 °F 34.0 °F 93% 30.32 in 10.0 mi NW 3.5 mph - N/A   Clear
8:55 AM 38.5 °F 35.0 °F 35.2 °F 88% 30.32 in 10.0 mi NW 4.6 mph - N/A   Clear
9:15 AM 40.8 °F 37.8 °F 36.7 °F 85% 30.33 in 10.0 mi WNW 4.6 mph - N/A   Clear
9:35 AM 42.3 °F 40.5 °F 36.7 °F 81% 30.34 in 10.0 mi West 3.5 mph - N/A   Clear
9:55 AM 45.1 °F 43.7 °F 36.3 °F 71% 30.34 in 10.0 mi NNW 3.5 mph - N/A   Clear
10:15 AM 49.8 °F - 37.0 °F 61% 30.34 in 10.0 mi West 3.5 mph - N/A   Clear
10:35 AM 52.3 °F - 35.2 °F 52% 30.34 in 10.0 mi Calm Calm - N/A   Clear
10:55 AM 56.3 °F - 35.4 °F 46% 30.34 in 10.0 mi Calm Calm - N/A   Clear
11:15 AM 57.4 °F - 35.2 °F 43% 30.33 in 10.0 mi SSW 3.5 mph - N/A   Clear
11:35 AM 58.6 °F - 31.5 °F 36% 30.32 in 10.0 mi Calm Calm - N/A   Clear
11:55 AM 61.2 °F - 31.5 °F 33% 30.31 in 10.0 mi South 4.6 mph - N/A   Clear
12:15 PM 61.7 °F - 28.4 °F 28% 30.30 in 10.0 mi SSW 3.5 mph - N/A   Clear
12:35 PM 62.8 °F - 19.4 °F 19% 30.28 in 10.0 mi Calm Calm - N/A   Clear
12:55 PM 64.6 °F - 13.6 °F 14% 30.26 in 10.0 mi Calm Calm - N/A   Clear
1:15 PM 65.7 °F - 15.3 °F 14% 30.24 in 10.0 mi Calm Calm - N/A   Clear
1:35 PM 66.7 °F - 18.7 °F 16% 30.23 in 10.0 mi East 4.6 mph - N/A   Clear
1:55 PM 68.9 °F - 21.4 °F 17% 30.22 in 10.0 mi SE 4.6 mph - N/A   Clear
2:15 PM 68.9 °F - 21.0 °F 16% 30.21 in 10.0 mi Calm Calm - N/A   Clear
2:35 PM 71.6 °F - 26.1 °F 18% 30.20 in 10.0 mi South 6.9 mph - N/A   Clear
2:55 PM 71.6 °F - 25.7 °F 18% 30.19 in 10.0 mi SE 6.9 mph - N/A   Clear
3:15 PM 71.6 °F - 23.9 °F 17% 30.19 in 10.0 mi SW 9.2 mph - N/A   Clear
3:35 PM 71.6 °F - 24.1 °F 17% 30.18 in 10.0 mi SW 6.9 mph - N/A   Clear
3:55 PM 71.6 °F - 25.7 °F 18% 30.18 in 10.0 mi South 4.6 mph - N/A   Clear
4:15 PM 70.9 °F - 26.1 °F 19% 30.18 in 10.0 mi South 8.1 mph - N/A   Clear
4:35 PM 71.2 °F - 26.4 °F 19% 30.17 in 10.0 mi SSW 6.9 mph - N/A   Clear
4:55 PM 68.9 °F - 27.0 °F 21% 30.16 in 10.0 mi South 5.8 mph - N/A   Clear
5:15 PM 66.2 °F - 27.0 °F 23% 30.16 in 10.0 mi South 5.8 mph - N/A   Clear
5:35 PM 63.7 °F - 28.2 °F 26% 30.16 in 10.0 mi South 5.8 mph - N/A   Clear
5:55 PM 62.6 °F - 27.7 °F 27% 30.17 in 10.0 mi South 6.9 mph - N/A   Clear
6:15 PM 59.9 °F - 28.4 °F 30% 30.17 in 10.0 mi South 4.6 mph - N/A   Clear
6:55 PM 57.4 °F - 28.4 °F 33% 30.17 in 10.0 mi Calm Calm - N/A   Clear
7:15 PM 56.3 °F - 28.0 °F 34% 30.17 in 10.0 mi Calm Calm - N/A   Clear
7:35 PM 53.6 °F - 28.9 °F 39% 30.17 in 10.0 mi Calm Calm - N/A   Clear
7:55 PM 53.6 °F - 29.8 °F 40% 30.16 in 10.0 mi Calm Calm - N/A   Clear
8:15 PM 51.1 °F - 30.4 °F 45% 30.16 in 10.0 mi Calm Calm - N/A   Clear
8:35 PM 48.0 °F - 31.3 °F 52% 30.16 in 10.0 mi Calm Calm - N/A   Clear
8:55 PM 49.3 °F - 30.9 °F 49% 30.16 in 10.0 mi Calm Calm - N/A   Clear
9:15 PM 45.7 °F - 30.0 °F 54% 30.15 in 10.0 mi Calm Calm - N/A   Clear
9:35 PM 47.3 °F - 29.8 °F 51% 30.15 in 10.0 mi Calm Calm - N/A   Clear
9:55 PM 44.1 °F - 29.5 °F 57% 30.15 in 10.0 mi Calm Calm - N/A   Clear
10:15 PM 44.8 °F - 29.3 °F 55% 30.15 in 10.0 mi Calm Calm - N/A   Clear
10:35 PM 41.0 °F - 31.1 °F 68% 30.14 in 10.0 mi Calm Calm - N/A   Clear
10:55 PM 40.3 °F - 31.5 °F 71% 30.14 in 10.0 mi Calm Calm - N/A   Clear
11:15 PM 41.0 °F - 31.8 °F 70% 30.13 in 10.0 mi Calm Calm - N/A   Clear
11:35 PM 41.0 °F - 32.0 °F 70% 30.13 in 10.0 mi Calm Calm - N/A   Clear
11:55 PM 41.0 °F - 31.8 °F 70% 30.11 in 10.0 mi Calm Calm - N/A   Clear